Flag for South Africa Weather past 2 weeks in Durban, South Africa

Now
50 °F

Clear.


Feels Like: 50 °F
Forecast: 49 / 75 °F
Wind: 1 mph from North

Location: King Shaka International Airport

Current Time: Jul 2, 2015 at 11:33:27 PM

Latest Report: Jul 2, 2015 at 11:00 PM


Visibility: 10 mi

Pressure: 30.30 "Hg

Humidity: 88%

Dew point: 46 °F

Location of DurbanLocation

Historic Weather in Durban — Graph

°F

Durban temperature yesterday

Maximum temperature yesterday: 72 °F (at 12:00 PM)
Minimum temperature yesterday: 50 °F (at 6:00 AM)
Average temperature yesterday: 62 °F

Past Weeks' High & Low Weather Summary

 TemperatureHumidityPressure
High91 °F (Jun 28, 2:00 PM)94% (Jun 18, 10:00 PM)30.51 "Hg (Jun 18, 10:00 PM)
Low43 °F (Jun 22, 3:00 AM)18% (Jun 24, 1:00 PM)29.92 "Hg (Jun 24, 3:00 PM)
Average62 °F67%30.24 "Hg
* Reported Jun 17 10:00 PM — Jul 2 10:00 PM, Durban, Weather by CustomWeather, © 2015

Note: Actual official high and low records may vary slightly from our data, if they occured in-between our weather recording intervals... More about our weather records

Advertising

Durban weather history for previous 24 hours

 ConditionsComfort  
Time TempWeatherWind HumidityBarometerVisibility
10:00 PM
Thu, Jul 2
50 °FClear.2 mph88%30.30 "Hg10 mi
9:00 PM57 °FClear.1 mph88%30.30 "Hg6 mi
8:00 PM57 °FClear.5 mph82%30.30 "Hg10 mi
7:00 PM59 °FClear.5 mph77%30.30 "Hg10 mi
6:00 PM61 °FClear.6 mph83%30.27 "Hg10 mi
5:00 PM66 °FClear.7 mph68%30.27 "Hg10 mi
4:00 PM68 °FSunny.9 mph64%30.27 "Hg10 mi
3:00 PM70 °FPassing clouds.9 mph60%30.27 "HgN/A
2:00 PM70 °FPassing clouds.13 mph60%30.27 "HgN/A
1:00 PM72 °FPassing clouds.12 mph57%30.30 "HgN/A
12:00 PM70 °FScattered clouds.8 mph57%30.33 "HgN/A
11:00 AM72 °FScattered clouds.7 mph53%30.33 "HgN/A
10:00 AM70 °FPassing clouds.2 mph57%30.36 "HgN/A
9:00 AM66 °FScattered clouds.6 mph60%30.36 "HgN/A
8:00 AM61 °FPartly sunny.3 mph72%30.33 "HgN/A
7:00 AM55 °FPartly sunny.2 mph82%30.33 "HgN/A
6:00 AM55 °FPartly sunny.3 mph82%30.33 "HgN/A
5:00 AM55 °FPassing clouds.3 mph88%30.30 "HgN/A
4:00 AM59 °FPassing clouds.3 mph77%30.30 "HgN/A
3:00 AM61 °FPassing clouds.5 mph77%30.30 "HgN/A
2:00 AM54 °FPassing clouds.2 mph88%30.33 "HgN/A
1:00 AM59 °FPassing clouds.3 mph77%30.33 "HgN/A
12:00 AM59 °FPassing clouds.3 mph77%30.36 "HgN/A
11:00 PM
Wed, Jul 1
61 °FPassing clouds.5 mph77%30.36 "HgN/A
Weather by CustomWeather, © 2015

See weather overviewHow to use our weather pages